Estación Meteorológica de la Universidad de Murcia
Estación Meteorológica de la Universidad de Murcia
Universidad de Murcia
 

Humedad relativaHumedad relativa

 

Máxima: 83 % a las 04:25:00 del día 22/06/2018
Mínima: 26,1 % a las 15:45:00 del día 22/06/2018

||Humedad máxima últimos meses|| ---- ||Humedad mínima últimos meses||


Humedad máxima

  • 1 - 83 % del día 22/06/2018
  • 2 - 79,4 % del día 21/06/2018
  • 3 - 82,1 % del día 20/06/2018
  • 4 - 88,4 % del día 19/06/2018
  • 5 - 85,7 % del día 18/06/2018
  • 6 - 88,8 % del día 17/06/2018
  • 7 - 92,9 % del día 16/06/2018
  • 8 - 89,3 % del día 15/06/2018
  • 9 - 91,2 % del día 14/06/2018
  • 10 - 78,2 % del día 13/06/2018
  • 11 - 75,3 % del día 12/06/2018
  • 12 - 82 % del día 11/06/2018
  • 13 - 94,7 % del día 10/06/2018
  • 14 - 93,2 % del día 09/06/2018
  • 15 - 85,7 % del día 08/06/2018
  • 16 - 97,8 % del día 07/06/2018
  • 17 - 96,2 % del día 06/06/2018
  • 18 - 70,5 % del día 05/06/2018
  • 19 - 87,3 % del día 04/06/2018
  • 20 - 96,9 % del día 03/06/2018
  • 21 - 97,8 % del día 02/06/2018
  • 22 - 93,8 % del día 01/06/2018
  • 23 - 81 % del día 31/05/2018
  • 24 - 85,8 % del día 30/05/2018
  • 25 - 92,6 % del día 29/05/2018
  • 26 - 82,2 % del día 28/05/2018
  • 27 - 93,1 % del día 27/05/2018
  • 28 - 93,5 % del día 26/05/2018
  • 29 - 82,8 % del día 25/05/2018
  • 30 - 70,9 % del día 24/05/2018
  • 31 - 97,5 % del día 23/05/2018
  • 32 - 83,6 % del día 22/05/2018
  • 33 - 91,5 % del día 21/05/2018
  • 34 - 93,1 % del día 20/05/2018
  • 35 - 91 % del día 19/05/2018
  • 36 - 84,6 % del día 18/05/2018
  • 37 - 77,6 % del día 17/05/2018
  • 38 - 89,3 % del día 16/05/2018
  • 39 - 87,3 % del día 15/05/2018
  • 40 - 80,8 % del día 14/05/2018
  • 41 - 69,3 % del día 13/05/2018
  • 42 - 97,3 % del día 12/05/2018
  • 43 - 96,1 % del día 11/05/2018
  • 44 - 97,3 % del día 10/05/2018
  • 45 - 92,9 % del día 09/05/2018
  • 46 - 92,8 % del día 08/05/2018
  • 47 - 91,6 % del día 07/05/2018
  • 48 - 85 % del día 06/05/2018
  • 49 - 86,4 % del día 05/05/2018
  • 50 - 81,8 % del día 04/05/2018
  • 51 - 74,4 % del día 03/05/2018
  • 52 - 86,1 % del día 02/05/2018
  • 53 - 93,6 % del día 01/05/2018
  • 54 - 94,3 % del día 30/04/2018
  • 55 - 94,9 % del día 29/04/2018
  • 56 - 91,2 % del día 28/04/2018
  • 57 - 94,2 % del día 27/04/2018
  • 58 - 92 % del día 26/04/2018
  • 59 - 94,9 % del día 25/04/2018
  • 60 - 65,9 % del día 24/04/2018

||Volver al inicio de la página||


Humedad mínima

  • 1 - 26,1 % del día 22/06/2018
  • 2 - 26,3 % del día 21/06/2018
  • 3 - 30,7 % del día 20/06/2018
  • 4 - 36,4 % del día 19/06/2018
  • 5 - 34,3 % del día 18/06/2018
  • 6 - 30,6 % del día 17/06/2018
  • 7 - 23,5 % del día 16/06/2018
  • 8 - 31,8 % del día 15/06/2018
  • 9 - 21,2 % del día 14/06/2018
  • 10 - 16,9 % del día 13/06/2018
  • 11 - 23,1 % del día 12/06/2018
  • 12 - 33,8 % del día 11/06/2018
  • 13 - 33 % del día 10/06/2018
  • 14 - 46,2 % del día 09/06/2018
  • 15 - 26,3 % del día 08/06/2018
  • 16 - 32,5 % del día 07/06/2018
  • 17 - 32,9 % del día 06/06/2018
  • 18 - 40,5 % del día 05/06/2018
  • 19 - 29,2 % del día 04/06/2018
  • 20 - 36,5 % del día 03/06/2018
  • 21 - 58,3 % del día 02/06/2018
  • 22 - 33,3 % del día 01/06/2018
  • 23 - 29,5 % del día 31/05/2018
  • 24 - 30,5 % del día 30/05/2018
  • 25 - 44,1 % del día 29/05/2018
  • 26 - 33,4 % del día 28/05/2018
  • 27 - 40,4 % del día 27/05/2018
  • 28 - 45,7 % del día 26/05/2018
  • 29 - 31,6 % del día 25/05/2018
  • 30 - 33,7 % del día 24/05/2018
  • 31 - 25,2 % del día 23/05/2018
  • 32 - 28,8 % del día 22/05/2018
  • 33 - 33 % del día 21/05/2018
  • 34 - 33,9 % del día 20/05/2018
  • 35 - 39,9 % del día 19/05/2018
  • 36 - 37,8 % del día 18/05/2018
  • 37 - 41,8 % del día 17/05/2018
  • 38 - 25,2 % del día 16/05/2018
  • 39 - 38,1 % del día 15/05/2018
  • 40 - 25,8 % del día 14/05/2018
  • 41 - 13,9 % del día 13/05/2018
  • 42 - 30,8 % del día 12/05/2018
  • 43 - 46,3 % del día 11/05/2018
  • 44 - 57,9 % del día 10/05/2018
  • 45 - 32,8 % del día 09/05/2018
  • 46 - 37,2 % del día 08/05/2018
  • 47 - 38,7 % del día 07/05/2018
  • 48 - 37,5 % del día 06/05/2018
  • 49 - 31,7 % del día 05/05/2018
  • 50 - 37,2 % del día 04/05/2018
  • 51 - 23 % del día 03/05/2018
  • 52 - 17,8 % del día 02/05/2018
  • 53 - 21,3 % del día 01/05/2018
  • 54 - 29,7 % del día 30/04/2018
  • 55 - 17,6 % del día 29/04/2018
  • 56 - 47,7 % del día 28/04/2018
  • 57 - 31,6 % del día 27/04/2018
  • 58 - 54,9 % del día 26/04/2018
  • 59 - 47,2 % del día 25/04/2018
  • 60 - 27,5 % del día 24/04/2018

 

|| Temperatura Ambiente|| Velocidad y dirección del viento|| Precipitación|| Radiación Solar Global y PAR|| Temperatura y humedad del suelo|| Presión atmosférica|| Más información|| Volver a la página principal|| Volver al inicio de la página||


Estación Meteorológica de la Universidad de Murcia
http://estacion.um.es/
Informacion actualizada a: 23/06/2018 a las 23:05:00